Voltar ao catálogo

SL-8 DEB

AtivoLEO
NORAD 21167·DEBRIS·🇷🇺 Russia

Lançado Feb 12, 1991 de Plesetsk Cosmodrome

Loading…

Próximas Passagens (próximas 24 horas)

TLE

AtualizadoSource: Space-Track

Época: Sep 14, 2026, 07:47 UTC

1 21167U 91009AE  26257.32487752 -.00000025  00000-0 -73733-4 0  9992
2 21167  73.9182  18.6693 0137526 338.6260  48.1064 12.29325577594345

Acompanhe SL-8 DEB em tempo real com AllMySat

Download on the App Store